Tracking 27111 objects as of 28-Mar-2023
HD Live streaming from Space Station
objects crossing your sky now

BREEZE-M DEB (TANK)

Track BREEZE-M DEB (TANK) now!
10-day predictions


NORAD ID: 40366
Int'l Code: 2014-089C
Perigee: 352.3 km
Apogee: 14,816.7 km
Inclination: 49.5 °
Period: 273.4 minutes
Semi major axis: 13955 km
RCS: Unknown
Launch date: December 27, 2014
Source: Commonwealth of Independent States (former USSR) (CIS)
Launch site: TYURATAM MISSILE AND SPACE COMPLEX (TTMTR)

Note: This is SATELLITE DEBRIS
Your satellite tracking list
Your tracking list is empty




NASA's NSSDC Master Catalog

Two Line Element Set (TLE):
1 40366U 14089C   23086.73012790  .00004889  00000-0  16358-2 0  9993
2 40366  49.5120 253.8689 5182332 181.5062 176.0812  5.26606511157066
Source of the keplerian elements: AFSPC